User: anonymous   Login
Location: Unspecified
(0.0000°N, 0.0000°E)
Time: 00:46:33
(UTC+00:00)
Language:

TBA - TO BE ASSIGNED - Orbit

View from above orbital plane
View from above orbital plane
View from above satellite
View from above satellite

Ground track
Ground track

The orbit is defined by the following mean orbital elements,

1 67337U          26145.41555469 +.00000000 +00000-0 +72347-3 0 00002
2 67337  43.0010 154.1558 0000762 248.3012 111.7759 15.27589845    05
Epoch (UTC): 25 May 2026 09:58:23
Eccentricity: 0.0000762
inclination: 43.0010°
perigee height: 482 km
apogee height: 484 km
right ascension of ascending node: 154.1558°
argument of perigee: 248.3012°
revolutions per day: 15.27589845
mean anomaly at epoch: 111.7759°

The dashed part of the orbit path shows where the satellite is in the earth's shadow,  

DLR